sat.trackr.live / text

‹ back to catalog

STARLINK-32418

NORAD 62429 · 2024-249W

PAYLOAD ACTIVE UNKNOWN

§ Identity

Operator
Country
US
Launch date
2024-12-23
Launch site
AFETR
Launch vehicle
Mass (kg)
RCS (m²)

Purposes: comms

External: N2YO · Heavens-Above · Gunter

§ Orbital elements

Epoch: 2026-09-21T09:17:48.104448Z

Period
94.27 min
Inclination
43.0009°
Eccentricity
0.0000589
Mean motion
15.27580206 rev/d
Perigee alt
482.6 km
Apogee alt
483.5 km
Semi-major
6,861.2 km
B*
3.6208e-4
RAAN
288.8199°
Arg perigee
307.4264°
Mean anomaly
52.6534°
Rev number
9,774

§ Raw data

STARLINK-324181 62429U 24249W   26264.38736232  .00009715  00000+0  36208-3 0  99912 62429  43.0009 288.8199 0000589 307.4264  52.6534 15.27580206 97742

JSON: /api/v1/satellites/62429 · /tle

For live sub-satellite position, see the globe view (requires WebGL).

§ Visibility from observer

Set your observer location to see the next 7 days of passes ≥ 10°. The values pass through the URL so the page stays shareable.

No JS? Fill the form by hand. The geolocation button needs JavaScript.